GW4458 Weather Reports


Display with metric or nautical units.
time (UTC)temp
F
wind
direction
speed
MPH
gust
MPH
rain 1hr
in
rain 24hr
in
rain mn
in
humidity
%
barometer
mb
20260506061524 69 163 1.0 4.0 0.00 0.00 0.00 60 991.1
20260506060545 69 220 0.0 2.0 0.00 0.00 0.00 59 991.3
20260506050520 71 211 2.0 5.0 0.00 0.00 0.00 54 991.2
20260506044524 71 187 0.0 2.0 0.00 0.00 0.00 53 990.6
20260506043525 71 153 1.0 4.0 0.00 0.00 0.00 52 990.6
20260506042524 71 190 0.0 2.0 0.00 0.00 0.00 51 990.9
20260506041524 71 208 1.0 5.0 0.00 0.00 0.00 51 991.1
20260506040539 71 0.0 2.0 0.00 0.00 0.00 50 991.0
20260506035524 71 267 0.0 2.0 0.00 0.00 0.00 50 990.9
20260506034526 71 0.0 1.0 0.00 0.00 0.00 49 991.0
20260506033526 71 180 0.0 2.0 0.00 0.00 0.00 49 990.8
20260506032524 71 170 0.0 1.0 0.00 0.00 0.00 48 991.0
20260506031520 71 195 1.0 3.0 0.00 0.00 0.00 48 991.1
20260506030520 71 158 1.0 3.0 0.00 0.00 0.00 49 991.1
20260506025530 71 143 0.0 1.0 0.00 0.00 0.00 48 991.1
20260506024525 71 160 1.0 3.0 0.00 0.00 0.00 48 991.0
20260506023524 72 185 0.0 2.0 0.00 0.00 0.00 48 991.1
20260506022520 72 162 1.0 2.0 0.00 0.00 0.00 47 991.1
20260506021524 72 169 1.0 3.0 0.00 0.00 0.00 47 990.9
20260506020527 72 192 1.0 4.0 0.00 0.00 0.00 47 990.7
20260506015521 72 0.0 0.0 0.00 0.00 0.00 47 990.6
20260506014525 72 151 1.0 2.0 0.00 0.00 0.00 47 990.8
20260506013521 72 193 1.0 2.0 0.00 0.00 0.00 46 991.0
20260506012520 72 211 1.0 2.0 0.00 0.00 0.00 46 990.8
20260506011544 72 137 1.0 2.0 0.00 0.00 0.00 46 990.6
20260506010526 72 153 0.0 2.0 0.00 0.00 0.00 45 990.5
20260506005521 72 193 1.0 2.0 0.00 0.00 0.00 45 990.5
20260506004605 73 181 1.0 2.0 0.00 0.00 0.00 44 990.5
20260506003526 73 202 1.0 3.0 0.00 0.00 0.00 43 990.5
20260506002524 74 184 1.0 3.0 0.00 0.00 0.00 42 990.6
20260506001523 74 192 1.0 4.0 0.00 0.00 0.00 42 990.7
20260506000541 75 209 2.0 4.0 0.00 0.00 0.00 40 990.8
20260505235544 75 209 3.0 7.0 0.00 0.00 0.00 40 990.8
20260505234524 75 205 4.0 7.0 0.00 0.00 0.00 40 990.8
20260505233524 76 222 3.0 7.0 0.00 0.00 0.00 41 990.9
20260505232525 76 217 2.0 7.0 0.00 0.00 0.00 40 990.8
20260505231525 77 212 2.0 4.0 0.00 0.00 0.00 39 990.8
20260505230526 77 211 2.0 4.0 0.00 0.00 0.00 38 990.7
20260505225524 78 239 0.0 2.0 0.00 0.00 0.00 37 990.5
20260505224524 77 170 2.0 4.0 0.00 0.00 0.00 37 990.5
20260505223524 78 184 3.0 7.0 0.00 0.00 0.00 38 990.4
20260505222526 78 197 2.0 5.0 0.00 0.00 0.00 36 990.5
20260505221524 79 215 2.0 4.0 0.00 0.00 0.00 36 990.7
20260505220524 79 199 2.0 4.0 0.00 0.00 0.00 35 990.7
20260505215525 80 207 3.0 7.0 0.00 0.00 0.00 34 990.8
20260505214524 80 208 3.0 5.0 0.00 0.00 0.00 34 990.5
20260505213549 80 223 3.0 7.0 0.00 0.00 0.00 34 990.5
20260505212539 80 216 5.0 9.0 0.00 0.00 0.00 32 990.4
20260505211525 81 204 4.0 8.0 0.00 0.00 0.00 32 990.6
20260505210521 82 225 5.0 10.0 0.00 0.00 0.00 33 990.8
20260505205525 82 227 5.0 10.0 0.00 0.00 0.00 32 990.8
20260505204524 82 231 4.0 7.0 0.00 0.00 0.00 31 991.0
20260505203546 83 194 5.0 11.0 0.00 0.00 0.00 33 991.1
20260505202525 83 171 5.0 9.0 0.00 0.00 0.00 33 991.2
20260505201524 83 182 6.0 9.0 0.00 0.00 0.00 31 991.3
20260505200520 84 193 3.0 4.0 0.00 0.00 0.00 33 991.4
20260505195524 82 220 5.0 9.0 0.00 0.00 0.00 32 991.5
20260505194521 82 184 5.0 9.0 0.00 0.00 0.00 33 991.7
20260505193525 82 227 4.0 7.0 0.00 0.00 0.00 33 991.9
20260505192524 81 222 4.0 9.0 0.00 0.00 0.00 33 992.1
20260505191524 81 166 5.0 11.0 0.00 0.00 0.00 35 992.2
20260505190524 80 212 4.0 7.0 0.00 0.00 0.00 35 992.3
20260505185550 81 164 5.0 10.0 0.00 0.00 0.00 35 992.3
20260505184606 80 171 5.0 11.0 0.00 0.00 0.00 36 992.3
20260505183530 81 174 6.0 11.0 0.00 0.00 0.00 35 992.3
20260505182544 82 199 4.0 7.0 0.00 0.00 0.00 33 992.4
20260505181519 81 214 5.0 9.0 0.00 0.00 0.00 33 992.4
20260505180524 79 195 6.0 10.0 0.00 0.00 0.00 35 992.6
20260505175526 81 150 5.0 11.0 0.00 0.00 0.00 34 992.8
20260505174545 80 177 5.0 10.0 0.00 0.00 0.00 34 993.1
20260505173524 81 158 6.0 10.0 0.00 0.00 0.00 34 993.1
20260505172520 81 220 5.0 16.0 0.00 0.00 0.00 36 993.4
20260505171524 79 158 6.0 11.0 0.00 0.00 0.00 36 993.5
20260505170524 80 205 6.0 10.0 0.00 0.00 0.00 36 993.4
20260505165525 80 175 4.0 12.0 0.00 0.00 0.00 36 993.5
20260505164524 80 170 6.0 13.0 0.00 0.00 0.00 35 993.5
20260505163525 80 189 5.0 8.0 0.00 0.00 0.00 37 993.3
20260505162520 81 207 3.0 7.0 0.00 0.00 0.00 38 993.2
20260505161524 80 209 5.0 10.0 0.00 0.00 0.00 40 993.3
20260505160526 78 187 6.0 11.0 0.00 0.00 0.00 42 993.3
20260505152520 78 188 2.0 3.0 0.00 0.00 0.00 43 993.8
20260505151547 76 182 2.0 4.0 0.00 0.00 0.00 47 993.9
20260505150525 75 135 3.0 6.0 0.00 0.00 0.00 49 993.7
20260505140525 73 316 0.0 2.0 0.00 0.00 0.00 51 994.0
20260505124525 62 148 1.0 3.0 0.00 0.00 0.00 68 993.5
20260505123525 60 183 0.0 2.0 0.00 0.00 0.00 74 993.4
20260505122521 58 0.0 0.0 0.00 0.00 0.00 79 993.4
20260505121524 58 158 0.0 1.0 0.00 0.00 0.00 79 993.2
20260505120525 58 150 0.0 2.0 0.00 0.00 0.00 79 993.1
20260505115524 56 0.0 0.0 0.00 0.00 0.00 82 993.0
20260505114545 55 0.0 0.0 0.00 0.00 0.00 83 993.1
20260505113526 53 0.0 0.0 0.00 0.00 0.00 87 992.9
20260505112526 52 0.0 0.0 0.00 0.00 0.00 89 992.7
20260505111524 50 0.0 0.0 0.00 0.00 0.00 89 992.5
20260505110520 50 0.0 0.0 0.00 0.00 0.00 88 992.4
20260505101521 52 0.0 1.0 0.00 0.00 0.00 83 992.2
20260505100524 52 151 0.0 2.0 0.00 0.00 0.00 81 992.1
20260505095530 52 139 1.0 2.0 0.00 0.00 0.00 82 992.4
20260505094545 52 141 0.0 2.0 0.00 0.00 0.00 82 992.5
20260505093524 52 0.0 0.0 0.00 0.00 0.00 83 992.5
20260505092545 51 0.0 0.0 0.00 0.00 0.00 83 992.2
20260505091519 51 0.0 0.0 0.00 0.00 0.00 83 992.1
20260505090524 52 0.0 0.0 0.00 0.00 0.00 83 992.2
20260505085527 52 0.0 0.0 0.00 0.00 0.00 83 992.4
20260505084525 52 0.0 0.0 0.00 0.00 0.00 83 992.5
20260505083524 52 305 0.0 2.0 0.00 0.00 0.00 83 992.5
20260505082520 52 278 0.0 1.0 0.00 0.00 0.00 84 992.4
20260505081540 52 0.0 1.0 0.00 0.00 0.00 85 992.4
20260505080529 52 0.0 0.0 0.00 0.00 0.00 85 992.4
20260505075525 52 0.0 0.0 0.00 0.00 0.00 83 992.4
20260505074544 52 0.0 0.0 0.00 0.00 0.00 83 992.3
20260505073524 52 0.0 0.0 0.00 0.00 0.00 82 992.4
20260505072524 52 0.0 0.0 0.00 0.00 0.00 81 992.5
20260505071528 53 0.0 0.0 0.00 0.00 0.00 81 992.6
20260505070525 53 0.0 0.0 0.00 0.00 0.00 81 992.5
20260505065525 53 0.0 0.0 0.00 0.00 0.00 79 992.5